Location: Newark
(42.8481°N, 0.4872°E)
Time: 22:44:49
(UTC+00:00)

Vanguard 2 - Pass Details

Date: 27 October 2020
Orbit: 554 x 2937 km, 32.9° (Epoch: 29 November)

Event Time Altitude Azimuth Distance (km) Brightness Sun altitude
Rises 02:01:25 0° 278° (W) 6,775 - -47.6°
Reaches altitude 10° 02:06:46 10° 270° (W) 5,763 - -46.8°
Maximum altitude 02:20:35 30° 218° (SW) 3,923 - -44.6°
Exits shadow 02:31:07 12° 166° (SSE) 4,504 11.3 -42.9°
Drops below altitude 10° 02:31:44 10° 164° (SSE) 4,598 11.4 -42.8°
Sets 02:35:27 0° 154° (SSE) 5,266 11.8 -42.2°
